Location: Casteau
(50.5142°N, 4.0161°E)
Time: 05:08:55
(UTC+00:00)

Cosmos 1603 - Pass Details

Date: 18 September 2020
Orbit: 832 x 858 km, 71.0° (Epoch: 29 October)

Event Time Altitude Azimuth Distance (km) Brightness Sun altitude
Rises 18:20:36 0° 329° (NNW) 3,424 7.5 -5.6°
Reaches altitude 10° 18:23:04 10° 328° (NNW) 2,480 6.8 -6.0°
Maximum altitude 18:28:45 78° 244° (WSW) 867 3.9 -6.9°
Drops below altitude 10° 18:34:22 10° 159° (SSE) 2,447 5.8 -7.8°
Sets 18:36:47 0° 158° (SSE) 3,374 6.5 -8.2°
